Home   Weather   La-Chaux-de-Fonds   Past weeks

Flag for Switzerland Past Weather in La-Chaux-de-Fonds, Neuchâtel, Switzerland — Yesterday and Last 2 Weeks

Now
55 °F

Cool.


Feels Like: 55 °F
Forecast: 55 / 76 °F
Wind: No wind

Location: Les Eplatures

Current Time: Aug 17, 2017 at 5:56:30 am

Latest Report: Aug 17, 2017 at 5:20 am


Visibility: 5 mi

Pressure: 30.21 "Hg (26.81 "Hg at 1000m altitude)

Humidity: 100%

Dew Point: 55 °F

Location of La-Chaux-de-FondsLocation

Past Weather in La-Chaux-de-Fonds — Graph

°F

La-Chaux-de-Fonds Temperature Yesterday

Maximum temperature yesterday: 72 °F (at 12:50 pm)
Minimum temperature yesterday: 54 °F (at 4:50 am)
Average temperature yesterday: 64 °F

High & Low Weather Summary for the Past Weeks

 TemperatureHumidityPressure
High81 °F (Aug 2, 3:20 pm)100% (Aug 2, 4:20 am)30.27 "Hg (Aug 2, 4:20 am)
Low43 °F (Aug 10, 10:20 pm)36% (Aug 7, 3:50 pm)29.92 "Hg (Aug 8, 8:20 am)
Average60 °F80%30.16 "Hg
* Reported Aug 2 4:20 am — Aug 17 4:50 am, La-Chaux-de-Fonds. Weather by CustomWeather, © 2017

Note: Actual official high and low records may vary slightly from our data, if they occured in-between our weather recording intervals... More about our weather records

Advertising

La-Chaux-de-Fonds Weather History for the Previous 24 Hours

Scroll right to see more
 ConditionsComfort  
Time TempWeatherWind HumidityBarometerVisibility
4:50 am
Thu, Aug 17
55 °FFog.No wind100%30.21 "Hg0 mi
4:20 am57 °FCool.No wind100%30.21 "Hg1 mi
3:50 am59 °FCool.1 mph100%30.21 "HgN/A
3:20 am59 °FMostly cloudy.No wind100%30.21 "Hg4 mi
2:50 am59 °FPartly cloudy.1 mph100%30.21 "Hg3 mi
2:20 am61 °FPassing clouds.No wind100%30.21 "HgN/A
1:50 am59 °FMostly cloudy.No wind100%30.21 "Hg6 mi
1:20 am59 °FOvercast.No wind100%30.24 "Hg4 mi
12:50 am59 °FFog.No wind100%30.24 "Hg2 mi
12:20 am61 °FPassing clouds.1 mph100%30.24 "Hg4 mi
11:50 pm
Wed, Aug 16
61 °FLight rain. Partly cloudy.1 mph100%30.24 "HgN/A
11:20 pm61 °FPassing clouds.No wind100%30.24 "HgN/A
10:50 pm61 °FThundershowers. Overcast.1 mph100%30.24 "HgN/A
10:20 pm61 °FOvercast.No wind100%30.24 "HgN/A
9:50 pm63 °FThundershowers. Passing clouds.5 mph100%30.24 "HgN/A
8:50 pm66 °FBroken clouds.No wind83%30.24 "HgN/A
8:20 pm66 °FPartly sunny.No wind83%30.24 "HgN/A
7:50 pm68 °FSunny.2 mph78%30.21 "Hg10 mi
7:20 pm68 °FOvercast.2 mph78%30.21 "HgN/A
6:50 pm68 °FScattered clouds.5 mph78%30.21 "HgN/A
6:20 pm70 °FBroken clouds.5 mph73%30.21 "HgN/A
5:50 pm70 °FBroken clouds.5 mph69%30.24 "HgN/A
5:20 pm70 °FBroken clouds.5 mph69%30.21 "HgN/A
4:50 pm72 °FBroken clouds.3 mph65%30.21 "HgN/A
4:20 pm72 °FBroken clouds.5 mph61%30.21 "HgN/A
3:50 pm72 °FBroken clouds.1 mph65%30.21 "HgN/A
3:20 pm72 °FBroken clouds.6 mph61%30.24 "HgN/A
2:50 pm72 °FBroken clouds.5 mph57%30.24 "HgN/A
2:20 pm72 °FScattered clouds.5 mph53%30.24 "HgN/A
1:50 pm72 °FScattered clouds.5 mph53%30.24 "HgN/A
1:20 pm72 °FScattered clouds.3 mph53%30.24 "HgN/A
12:50 pm72 °FBroken clouds.3 mph61%30.24 "HgN/A
12:20 pm70 °FMild.3 mph60%30.24 "HgN/A
11:50 am70 °FPartly sunny.2 mph57%30.24 "HgN/A
11:20 am70 °FClear.3 mph64%30.24 "HgN/A
10:50 am68 °FPartly sunny.3 mph60%30.24 "HgN/A
10:20 am68 °FSunny.3 mph60%30.24 "Hg10 mi
9:50 am66 °FSunny.2 mph64%30.24 "Hg10 mi
9:20 am61 °FPartly sunny.1 mph83%30.24 "HgN/A
8:50 am63 °FPartly sunny.No wind77%30.24 "HgN/A
8:20 am61 °FPartly sunny.2 mph83%30.24 "HgN/A
7:50 am61 °FSunny.1 mph83%30.24 "Hg10 mi
7:20 am59 °FClear.1 mph88%30.24 "HgN/A
6:50 am57 °FCool.1 mph88%30.24 "HgN/A
6:20 am57 °FClear.No wind94%30.24 "Hg10 mi
5:50 am57 °FClear.No wind94%30.24 "Hg10 mi
5:20 am57 °FClear.1 mph94%30.24 "Hg10 mi
Weather by CustomWeather, © 2017

See weather overviewHow to use our weather pages